Regional Weather Roundup
Issued by NWS

Home | Current Version | Previous Version | Graphics & Text | Print | Product List | Glossary On
Versions: 1 2 3 4 5 6 7 8 9 10 11 12 13 14 15 16 17 18 19 20 21 22 23 24 25 26 27 28 29 30 31 32 33 34 35 36 37 38 39 40 41 42 43 44 45 46 47 48 49 50
000
ASUS45 KSLC 210110
RWRUT

UTAH REGIONAL WEATHER ROUNDUP
NATIONAL WEATHER SERVICE SALT LAKE CITY UT
700 PM MDT MON APR 20 2015

UTZ001>011-023>025-210200-

NORTHERN UTAH

CITY           SKY/WX    TMP DP  RH WIND       PRES   REMARKS
BRIGHAM CITY   SUNNY     67  23  18 SW7       29.86F
HILL AFB       SUNNY     64  24  21 SW3       29.88F
LOGAN          SUNNY     66  34  30 SW6       29.85F
OGDEN          SUNNY     66  22  18 W3        29.86F
PROVO AIRPORT  NOT AVBL
SALT LAKE CITY MOSUNNY   67  22  18 NW8       29.86F
VERNAL         MOSUNNY   63  26  24 VRB3      29.86F
WENDOVER       SUNNY     70  19  14 E7        29.86S
HEBER CITY     MOSUNNY   64  18  16 N6        29.88S
WEST JORDAN    SUNNY     64  27  24 NW9       29.88F

$$

UTZ012>022-026-027-210200-

SOUTHERN/CENTRAL UTAH

CITY           SKY/WX    TMP DP  RH WIND       PRES   REMARKS
BLANDING       MOSUNNY   65  22  19 W13G18    29.95F
BRYCE CANYON   MOSUNNY   60  12  15 NW13      29.98R
CEDAR CITY     MOSUNNY   69  12  11 W13       29.86S
DELTA          SUNNY     69   8   9 N6        29.86F
HANKSVILLE     SUNNY     72  21  15 SW3       29.82F
MILFORD        SUNNY     72  11   9 NE12      29.84F
MOAB/CYNLANDS  SUNNY     69  23  17 SW6       29.81F
PRICE          SUNNY     65  12  12 NW10      29.87S
ST GEORGE      PTCLDY    82  21  10 W12       29.75S
KANAB          SUNNY     72  10   9 SW9       29.88S

$$

REGIONAL REPORTS     COLORADO/ARIZONA

CITY           SKY/WX    TMP DP  RH WIND       PRES   REMARKS
CRAIG, CO      PTCLDY    50  36  58 SE8       29.92F
GRAND JUNCTION PTCLDY    64  29  26 NW5       29.85S
RIFLE          PTCLDY    59  31  34 S5        29.89F
MONTROSE       PTCLDY    61  29  29 W6        29.92F
CORTEZ         CLEAR     62  24  23 SW3       29.91F
PAGE, AZ       MOSUNNY   79   8   6 W10G18    29.78F
GRAND CANYON   MOSUNNY   64  16  15 W9        29.97S
KINGMAN        SUNNY     78  14   9 SW14      29.82S
FLAGSTAFF      PTSUNNY   60  18  19 W10       30.00S

$$

REGIONAL REPORTS    NEVADA/IDAHO/WYOMING

CITY           SKY/WX    TMP DP  RH WIND       PRES   REMARKS
LAS VEGAS, NV  MOSUNNY   86  14   7 S8        29.66F
ELY            SUNNY     66   3   8 NW12      29.92S
ELKO           SUNNY     69  17  13 W7        29.87F
POCATELLO, ID  SUNNY     65  20  17 S8        29.87F
BURLEY         SUNNY     66  27  23 W10       29.85S
EVANSTON, WY   MOSUNNY   56  18  22 NW13      29.95S
ROCK SPRINGS   MOSUNNY   55  16  21 W8        29.89S
KEMMERER       MOSUNNY   52  19  28 W13G22    29.95S

$$


USA.gov is the U.S. government's official web portal to all federal, state and local government web resources and services.